Time,TemperatureF,DewpointF,PressureIn,WindDirection,WindDirectionDegrees,WindSpeedMPH,WindSpeedGustMPH,Humidity,HourlyPrecipIn,Conditions,Clouds,dailyrainin,SolarRadiationWatts/m^2,SoftwareType,DateUTC
2013-05-03 00:22:00,66.0,63.0,-100.00,ESE,103,4.0,14.0,90,0.00,,,0.06,0.000000,,2013-05-03 10:22:00,
2013-05-03 00:32:00,66.0,63.0,-100.00,ESE,103,4.0,14.0,90,0.00,,,0.06,0.000000,,2013-05-03 10:32:00,
2013-05-03 00:42:00,66.0,63.0,-100.00,ESE,103,4.0,14.0,90,0.00,,,0.06,0.000000,,2013-05-03 10:42:00,
2013-05-03 00:52:00,66.0,63.0,-100.00,ESE,103,4.0,14.0,90,0.00,,,0.06,0.000000,,2013-05-03 10:52:00,
2013-05-03 01:22:00,64.0,63.0,-100.00,SSE,155,2.0,11.0,98,0.00,,,0.05,0.000000,,2013-05-03 11:22:00,
2013-05-03 01:31:00,64.0,63.0,-100.00,SSE,155,2.0,11.0,98,0.00,,,0.05,0.000000,,2013-05-03 11:31:00,
2013-05-03 01:42:00,64.0,63.0,-100.00,SSE,155,2.0,11.0,98,0.00,,,0.05,0.000000,,2013-05-03 11:42:00,
2013-05-03 01:51:00,64.0,63.0,-100.00,SSE,155,2.0,11.0,98,0.00,,,0.05,0.000000,,2013-05-03 11:51:00,
2013-05-03 02:21:00,64.0,64.0,-100.00,ENE,59,2.0,5.0,100,0.00,,,0.05,0.000000,,2013-05-03 12:21:00,
2013-05-03 02:32:00,64.0,64.0,-100.00,ENE,59,2.0,5.0,100,0.00,,,0.05,0.000000,,2013-05-03 12:32:00,
2013-05-03 02:41:00,64.0,64.0,-100.00,ENE,59,2.0,5.0,100,0.00,,,0.05,0.000000,,2013-05-03 12:41:00,
2013-05-03 02:51:00,64.0,64.0,-100.00,ENE,59,2.0,5.0,100,0.00,,,0.05,0.000000,,2013-05-03 12:51:00,
2013-05-03 03:22:00,62.0,62.0,-100.00,NNW,334,2.0,5.0,100,0.00,,,0.04,0.000000,,2013-05-03 13:22:00,
2013-05-03 03:32:00,62.0,62.0,-100.00,NNW,334,2.0,5.0,100,0.00,,,0.04,0.000000,,2013-05-03 13:32:00,
2013-05-03 03:42:00,62.0,62.0,-100.00,NNW,334,2.0,5.0,100,0.00,,,0.04,0.000000,,2013-05-03 13:42:00,
2013-05-03 03:52:00,62.0,62.0,-100.00,NNW,334,2.0,5.0,100,0.00,,,0.04,0.000000,,2013-05-03 13:52:00,
2013-05-03 04:21:00,63.0,63.0,-100.00,NE,38,2.0,5.0,100,0.00,,,0.03,0.000000,,2013-05-03 14:21:00,
2013-05-03 04:32:00,63.0,63.0,-100.00,NE,38,2.0,5.0,100,0.00,,,0.03,0.000000,,2013-05-03 14:32:00,
2013-05-03 04:42:00,63.0,63.0,-100.00,NE,38,2.0,5.0,100,0.00,,,0.03,0.000000,,2013-05-03 14:42:00,
2013-05-03 04:52:00,63.0,63.0,-100.00,NE,38,2.0,5.0,100,0.00,,,0.03,0.000000,,2013-05-03 14:52:00,
2013-05-03 05:22:00,64.0,64.0,-100.00,NNE,32,2.0,4.0,100,0.00,,,0.03,0.000000,,2013-05-03 15:22:00,
2013-05-03 05:32:00,64.0,64.0,-100.00,NNE,32,2.0,4.0,100,0.00,,,0.03,0.000000,,2013-05-03 15:32:00,
2013-05-03 05:43:00,64.0,64.0,-100.00,NNE,32,2.0,4.0,100,0.00,,,0.03,0.000000,,2013-05-03 15:43:00,
2013-05-03 05:53:00,64.0,64.0,-100.00,NNE,32,2.0,4.0,100,0.00,,,0.03,0.000000,,2013-05-03 15:53:00,
2013-05-03 06:22:00,65.0,65.0,-100.00,ESE,116,2.0,7.0,100,0.00,,,0.03,0.000000,,2013-05-03 16:22:00,
2013-05-03 06:32:00,65.0,65.0,-100.00,ESE,116,2.0,7.0,100,0.00,,,0.03,0.000000,,2013-05-03 16:32:00,
2013-05-03 06:42:00,65.0,65.0,-100.00,ESE,116,2.0,7.0,100,0.00,,,0.03,0.000000,,2013-05-03 16:42:00,
2013-05-03 06:52:00,65.0,65.0,-100.00,ESE,116,2.0,7.0,100,0.00,,,0.03,0.000000,,2013-05-03 16:52:00,
2013-05-03 07:23:00,68.0,68.0,-100.00,SW,214,2.0,5.0,100,0.00,,,0.02,58.000000,,2013-05-03 17:23:00,
2013-05-03 07:32:00,68.0,68.0,-100.00,SW,214,2.0,5.0,100,0.00,,,0.02,58.000000,,2013-05-03 17:32:00,
2013-05-03 07:42:00,68.0,68.0,-100.00,SW,214,2.0,5.0,100,0.00,,,0.02,58.000000,,2013-05-03 17:42:00,
2013-05-03 07:51:00,68.0,68.0,-100.00,SW,214,2.0,5.0,100,0.00,,,0.02,58.000000,,2013-05-03 17:51:00,
2013-05-03 08:21:00,76.0,70.0,-100.00,East,95,1.0,4.0,82,0.00,,,-99.99,268.000000,,2013-05-03 18:21:00,
2013-05-03 08:32:00,76.0,70.0,-100.00,East,95,1.0,4.0,82,0.00,,,-99.99,268.000000,,2013-05-03 18:32:00,
2013-05-03 08:42:00,76.0,70.0,-100.00,East,95,1.0,4.0,82,0.00,,,-99.99,268.000000,,2013-05-03 18:42:00,
2013-05-03 08:51:00,76.0,70.0,-100.00,East,95,1.0,4.0,82,0.00,,,-99.99,268.000000,,2013-05-03 18:51:00,
2013-05-03 09:21:00,77.0,64.0,-100.00,East,99,4.0,13.0,64,0.00,,,0.01,585.000000,,2013-05-03 19:21:00,
2013-05-03 09:32:00,77.0,64.0,-100.00,East,99,4.0,13.0,64,0.00,,,0.01,585.000000,,2013-05-03 19:32:00,
2013-05-03 09:41:00,77.0,64.0,-100.00,East,99,4.0,13.0,64,0.00,,,0.01,585.000000,,2013-05-03 19:41:00,
2013-05-03 09:52:00,77.0,64.0,-100.00,East,99,4.0,13.0,64,0.00,,,0.01,585.000000,,2013-05-03 19:52:00,
2013-05-03 10:21:00,78.0,61.0,-100.00,ESE,105,7.0,15.0,56,0.00,,,0.01,837.000000,,2013-05-03 20:21:00,
2013-05-03 10:31:00,78.0,61.0,-100.00,ESE,105,7.0,15.0,56,0.00,,,0.01,837.000000,,2013-05-03 20:31:00,
2013-05-03 10:41:00,78.0,61.0,-100.00,ESE,105,7.0,15.0,56,0.00,,,0.01,837.000000,,2013-05-03 20:41:00,
2013-05-03 10:52:00,78.0,61.0,-100.00,ESE,105,7.0,15.0,56,0.00,,,0.01,837.000000,,2013-05-03 20:52:00,
2013-05-03 11:21:00,81.0,63.0,-100.00,SSW,204,5.0,12.0,54,0.00,,,0.00,1026.000000,,2013-05-03 21:21:00,
2013-05-03 11:33:00,81.0,63.0,-100.00,SSW,204,5.0,12.0,54,0.00,,,0.00,1026.000000,,2013-05-03 21:33:00,
2013-05-03 11:42:00,81.0,63.0,-100.00,SSW,204,5.0,12.0,54,0.00,,,0.00,1026.000000,,2013-05-03 21:42:00,
2013-05-03 11:52:00,81.0,63.0,-100.00,SSW,204,5.0,12.0,54,0.00,,,0.00,1026.000000,,2013-05-03 21:52:00,
2013-05-03 12:22:00,81.0,61.0,-100.00,NE,48,4.0,15.0,51,0.00,,,0.00,983.000000,,2013-05-03 22:22:00,
2013-05-03 12:32:00,81.0,61.0,-100.00,NE,48,4.0,15.0,51,0.00,,,0.00,983.000000,,2013-05-03 22:32:00,
2013-05-03 12:42:00,81.0,61.0,-100.00,NE,48,4.0,15.0,51,0.00,,,0.00,983.000000,,2013-05-03 22:42:00,
2013-05-03 12:52:00,81.0,61.0,-100.00,NE,48,4.0,15.0,51,0.00,,,0.00,983.000000,,2013-05-03 22:52:00,
2013-05-03 14:22:00,77.0,68.0,-100.00,South,171,6.0,14.0,74,-99.99,,,0.00,457.000000,,2013-05-04 00:22:00,
2013-05-03 14:31:00,77.0,68.0,-100.00,South,171,6.0,14.0,74,-99.99,,,0.00,457.000000,,2013-05-04 00:31:00,
2013-05-03 14:41:00,77.0,68.0,-100.00,South,171,6.0,14.0,74,-99.99,,,0.00,457.000000,,2013-05-04 00:41:00,
2013-05-03 14:52:00,77.0,68.0,-100.00,South,171,6.0,14.0,74,-99.99,,,0.00,457.000000,,2013-05-04 00:52:00,
2013-05-03 15:21:00,76.0,68.0,-100.00,SE,137,4.0,14.0,76,0.00,,,0.00,197.000000,,2013-05-04 01:21:00,
2013-05-03 15:31:00,76.0,68.0,-100.00,SE,137,4.0,14.0,76,0.00,,,0.00,197.000000,,2013-05-04 01:31:00,
2013-05-03 15:41:00,76.0,68.0,-100.00,SE,137,4.0,14.0,76,0.00,,,0.00,197.000000,,2013-05-04 01:41:00,
2013-05-03 15:52:00,76.0,68.0,-100.00,SE,137,4.0,14.0,76,0.00,,,0.00,197.000000,,2013-05-04 01:52:00,
2013-05-03 16:21:00,73.0,66.0,-100.00,East,90,6.0,12.0,79,0.00,,,0.00,240.000000,,2013-05-04 02:21:00,
2013-05-03 16:32:00,73.0,66.0,-100.00,East,90,6.0,12.0,79,0.00,,,0.00,240.000000,,2013-05-04 02:32:00,
2013-05-03 16:41:00,73.0,66.0,-100.00,East,90,6.0,12.0,79,0.00,,,0.00,240.000000,,2013-05-04 02:41:00,
2013-05-03 16:52:00,73.0,66.0,-100.00,East,90,6.0,12.0,79,0.00,,,0.00,240.000000,,2013-05-04 02:52:00,
2013-05-03 17:21:00,76.0,67.0,-100.00,SE,125,5.0,13.0,73,0.00,,,0.00,403.000000,,2013-05-04 03:21:00,
2013-05-03 17:32:00,76.0,67.0,-100.00,SE,125,5.0,13.0,73,0.00,,,0.00,403.000000,,2013-05-04 03:32:00,
2013-05-03 17:43:00,76.0,67.0,-100.00,SE,125,5.0,13.0,73,0.00,,,0.00,403.000000,,2013-05-04 03:43:00,
2013-05-03 17:52:00,76.0,67.0,-100.00,SE,125,5.0,13.0,73,0.00,,,0.00,403.000000,,2013-05-04 03:52:00,
2013-05-03 18:22:00,76.0,67.0,-100.00,ESE,120,5.0,11.0,75,0.00,,,0.00,181.000000,,2013-05-04 04:22:00,
2013-05-03 18:32:00,76.0,67.0,-100.00,ESE,120,5.0,11.0,75,0.00,,,0.00,181.000000,,2013-05-04 04:32:00,
2013-05-03 18:42:00,76.0,67.0,-100.00,ESE,120,5.0,11.0,75,0.00,,,0.00,181.000000,,2013-05-04 04:42:00,
2013-05-03 18:52:00,76.0,67.0,-100.00,ESE,120,5.0,11.0,75,0.00,,,0.00,181.000000,,2013-05-04 04:52:00,
2013-05-03 19:22:00,71.0,67.0,-100.00,ESE,119,4.0,10.0,87,0.00,,,0.00,29.000000,,2013-05-04 05:22:00,
2013-05-03 19:32:00,71.0,67.0,-100.00,ESE,119,4.0,10.0,87,0.00,,,0.00,29.000000,,2013-05-04 05:32:00,
2013-05-03 19:42:00,71.0,67.0,-100.00,ESE,119,4.0,10.0,87,0.00,,,0.00,29.000000,,2013-05-04 05:42:00,
2013-05-03 19:52:00,71.0,67.0,-100.00,ESE,119,4.0,10.0,87,0.00,,,0.00,29.000000,,2013-05-04 05:52:00,
2013-05-03 20:21:00,67.0,66.0,-100.00,ESE,103,3.0,7.0,96,0.00,,,0.00,0.000000,,2013-05-04 06:21:00,
2013-05-03 20:32:00,67.0,66.0,-100.00,ESE,103,3.0,7.0,96,0.00,,,0.00,0.000000,,2013-05-04 06:32:00,
2013-05-03 20:41:00,67.0,66.0,-100.00,ESE,103,3.0,7.0,96,0.00,,,0.00,0.000000,,2013-05-04 06:41:00,
2013-05-03 20:52:00,67.0,66.0,-100.00,ESE,103,3.0,7.0,96,0.00,,,0.00,0.000000,,2013-05-04 06:52:00,
2013-05-03 21:21:00,66.0,66.0,-100.00,NNE,32,3.0,5.0,100,0.00,,,0.00,0.000000,,2013-05-04 07:21:00,
2013-05-03 21:32:00,66.0,66.0,-100.00,NNE,32,3.0,5.0,100,0.00,,,0.00,0.000000,,2013-05-04 07:32:00,
2013-05-03 21:41:00,66.0,66.0,-100.00,NNE,32,3.0,5.0,100,0.00,,,0.00,0.000000,,2013-05-04 07:41:00,
2013-05-03 21:52:00,66.0,66.0,-100.00,NNE,32,3.0,5.0,100,0.00,,,0.00,0.000000,,2013-05-04 07:52:00,
2013-05-03 22:21:00,66.0,66.0,-100.00,NNE,26,3.0,5.0,100,0.00,,,0.00,0.000000,,2013-05-04 08:21:00,
2013-05-03 22:31:00,66.0,66.0,-100.00,NNE,26,3.0,5.0,100,0.00,,,0.00,0.000000,,2013-05-04 08:31:00,
2013-05-03 22:41:00,66.0,66.0,-100.00,NNE,26,3.0,5.0,100,0.00,,,0.00,0.000000,,2013-05-04 08:41:00,
2013-05-03 22:52:00,66.0,66.0,-100.00,NNE,26,3.0,5.0,100,0.00,,,0.00,0.000000,,2013-05-04 08:52:00,
2013-05-03 23:21:00,66.0,66.0,-100.00,NE,39,3.0,5.0,100,0.00,,,0.00,0.000000,,2013-05-04 09:21:00,
2013-05-03 23:32:00,66.0,66.0,-100.00,NE,39,3.0,5.0,100,0.00,,,0.00,0.000000,,2013-05-04 09:32:00,
2013-05-03 23:42:00,66.0,66.0,-100.00,NE,39,3.0,5.0,100,0.00,,,0.00,0.000000,,2013-05-04 09:42:00,
2013-05-03 23:52:00,66.0,66.0,-100.00,NE,39,3.0,5.0,100,0.00,,,0.00,0.000000,,2013-05-04 09:52:00,